STARLINK-32919, 63150

Orbit data source: Space-Track

STARLINK-32919, 63150 is a payload satellite owned by SpaceX/Seattle (US) in LEO that was launched on Mon, 03 Mar 2025 UTC via an FALCON 9 launch vehicle from the Air Force Eastern Test Range (AFETR). Payload-class satellites include a variety of spacecraft equipped with specific instruments for various scientific and technological missions. These include communications satellites like Starlink; space stations such as the ISS; scientific satellites like the Hubble; Earth observation satellites from companies like Planet Labs, Umbra, and HawkEye 360; GPS; miniature CubeSats for education and research; and military/defense satellites.

Loading next visibility...
Identifier
63150, 2025-043U
Orbit
LEO
Last TLE update
8 hours ago
Origin
Manufacturer
SpaceX/Seattle
Mission
Operational Commercial Communications
Bus & Motor
STARLINK V2M, Unknown motor
Mass
730 kg wet, ~700 kg dry
Launch date (UTC)
2025-03-03 (2 months ago)
Launch vehicle
FALCON 9
Launch site
Air Force Eastern Test Range (AFETR)
Object type
Payload
Rocket body
Debris
Shape & HBR
Box + 2 Pan, 29 m
Radar Cross Section
33.884 m², Large (>1 m²)

Expand to show TLE details & history

TLE from 8 hours ago
0 STARLINK-32919
1 63150U 25043U   25128.90956769 -.00000203  00000-0  24121-5 0  9999
2 63150  43.0048 301.5028 0002123 283.8625  76.1996 15.40697660 10707
Epoch: 2025-05-08T21:49Z
Definitive object data (Epoch: 2025-05-08T21:49:46.648Z)
Latitude
0.00003°
Longitude
107.08517°
Altitude
443.479 km
Speed
7.648 km/s
True Right ascension
20h 06m 00s
True Declination
0° 00' 00"
Sunlit
Object was in daylight at TLE epoch
Visualization TLE readout
Latitude
-26.01704°
Longitude
73.89701°
Altitude
449.366 km
Speed
7.644 km/s
Apparent Right ascension
21h 03m 44s
Apparent Declination
-49° 38' 31"
Sunlit
Object is in full shadow
Visualization observer readout
Local Sidereal Time
13:34:53
Azimuth
125.484° SE
Elevation
-42.588°
Doppler factor
1
Orbital elements
Apogee altitude
447.453 km
Perigee altitude
444.556 km
Semi-major axis
6,824.141 km
Eccentricity
0.0002123
Inclination
43.0048°
RAAN
301.5028°
Arg. of periapsis
283.8625°
True anomaly
76.22323°
Mean anomaly
76.1996°
Eccentric anomaly
76.21141°
Mean motion
3.85009 °/min
BSTAR
0.0000024121
Orbital period
93.5 mins
Loading maneuver chart data...
Loading SW <> Apogee altitude chart data...
Loading historical data...
Loading historical data...
Loading historical data...
Loading historical data...
Loading historical data...
Loading historical data...
Loading historical data...

STARLINK-32919 Visibility forecast

Observer location: undefined°, undefined°

Span
Click to sort rows by Start time (UTC) header in descending order
Start Az.
Max El. time (UTC)
Max El. Az.
Max El.
End time (UTC)
End Az.
5 mins2025-05-09 15:11:13.285Z221.281° SW2025-05-09 15:13:13.285Z134.387° SE37.983°2025-05-09 15:16:13.285Z77.918° E
5 mins2025-05-09 16:49:13.285Z282.258° WNW2025-05-09 16:51:13.285Z6.376° NNE39.082°2025-05-09 16:54:13.285Z70.13° E
5 mins2025-05-09 18:27:13.285Z295.605° NW2025-05-09 18:29:13.285Z356.13° N39.975°2025-05-09 18:32:13.285Z87.721° E
5 mins2025-05-09 20:05:13.285Z273.81° WNW2025-05-09 20:07:13.285Z219.45° SW35.914°2025-05-09 20:10:13.285Z134.796° SE
|